Weather History for Granada, Spain

Change the Weather History Date:

Monday, October 8, 2012

  Actual Average Record
Temperature  
Mean Temperature 67 °F -  
Max Temperature 85 °F 69 °F 85 °F (2012)
Min Temperature 49 °F 45 °F 35 °F (1996)
Cooling Degree Days 2    
Growing Degree Days 17 (Base 50)    
Moisture  
Dew Point 48 °F    
Average Humidity 52    
Maximum Humidity 94    
Minimum Humidity 17    
Precipitation  
Precipitation 0.00 in - - ()
Sea Level Pressure  
Sea Level Pressure 30.17 in    
Wind  
Wind Speed 2 mph ()    
Max Wind Speed 10 mph    
Max Gust Speed -    
Visibility 15.8 miles    
Events      
Averages and records for this station are not official NWS values.
T = Trace of Precipitation, MM = Missing Value Source: Averaged Metar Reports

Daily Weather History Graph

Daily Weather History Graph

Search for Another Location

Airport:

Trip Planner

Search our weather history database for the weather conditions in past years. The results will help you decide how hot, cold, wet, or windy it might be!

Date:

Astronomy

Oct. 08, 2012 Rise Set
Actual Time 8:16 AM CEST 7:47 PM CEST
Civil Twilight 7:50 AM CEST 8:13 PM CEST
Nautical Twilight 7:20 AM CEST 8:43 PM CEST
Astronomical Twilight 6:50 AM CEST 9:14 PM CEST
Moon 12:52 AM CEST (10/8) 3:19 PM CEST (10/8)
Length of Visible Light 12h 22m
Length of Day
11h 30m
Waning Gibbous, 49% of the Moon is Illuminated
Oct 8
Waning Gibbous
Oct 15
New
Oct 22
First Quarter
Oct 29
Full
Nov 7
Last Quarter

Hourly Weather History & Observations

Time (CEST) Temp. Dew Point Humidity Pressure Visibility Wind Dir Wind Speed Gust Speed Precip Events Conditions
2:00 AM 58 °F 50 °F 68% 30.20 in 12 mi SW 2.3 mph - -  
6:00 AM 53.6 °F 51.8 °F 94% 30.18 in - Calm Calm - N/A   Clear
6:30 AM 53.6 °F 50.0 °F 88% 30.18 in - Variable 1.2 mph - N/A   Clear
7:00 AM 53.6 °F 51.8 °F 94% 30.18 in - Variable 1.2 mph - N/A   Clear
7:30 AM 53.6 °F 50.0 °F 88% 30.21 in - Calm Calm - N/A   Clear
8:00 AM 50 °F 45 °F 77% 30.22 in 16 mi NW 1.2 mph - -   Clear
8:00 AM 51.8 °F 50.0 °F 94% 30.21 in - Calm Calm - N/A   Clear
8:30 AM 51.8 °F 50.0 °F 94% 30.21 in - Variable 1.2 mph - N/A   Clear
9:00 AM 53.6 °F 51.8 °F 94% 30.21 in - Calm Calm - N/A   Clear
9:30 AM 57.2 °F 53.6 °F 88% 30.21 in - Variable 1.2 mph - N/A   Clear
10:00 AM 62.6 °F 53.6 °F 72% 30.21 in - Calm Calm - N/A   Clear
10:30 AM 60.8 °F 55.4 °F 82% 30.24 in - Calm Calm - N/A   Clear
11:00 AM 64.4 °F 55.4 °F 73% 30.24 in - Calm Calm - N/A   Clear
11:30 AM 68.0 °F 53.6 °F 60% 30.24 in - Calm Calm - N/A   Clear
12:00 PM 71.6 °F 51.8 °F 50% 30.21 in - Calm Calm - N/A   Clear
12:30 PM 73.4 °F 53.6 °F 50% 30.21 in - Calm Calm - N/A   Clear
1:00 PM 75.2 °F 53.6 °F 47% 30.21 in - Calm Calm - N/A   Clear
1:30 PM 77.0 °F 51.8 °F 41% 30.18 in - Variable 1.2 mph - N/A   Clear
2:00 PM 79 °F 48 °F 23% 30.09 in 16 mi Calm Calm - -   Clear
2:00 PM 80.6 °F 51.8 °F 37% 30.18 in - Variable 1.2 mph - N/A   Clear
2:30 PM 82.4 °F 50.0 °F 32% 30.18 in - Variable 2.3 mph - N/A   Clear
3:00 PM 84.2 °F 46.4 °F 27% 30.15 in - West 9.2 mph - N/A   Clear
3:30 PM 86.0 °F 46.4 °F 25% 30.15 in - West 10.4 mph - N/A   Clear
4:00 PM 86.0 °F 48.2 °F 27% 30.15 in - West 10.4 mph - N/A   Clear
4:30 PM 86.0 °F 39.2 °F 19% 30.12 in - West 9.2 mph - N/A   Clear
5:30 PM 86.0 °F 37.4 °F 18% 30.12 in - West 9.2 mph - N/A   Clear
6:00 PM 86.0 °F 35.6 °F 17% 30.12 in - West 6.9 mph - N/A   Clear
6:30 PM 86.0 °F 35.6 °F 17% 30.12 in - West 8.1 mph - N/A   Clear
7:00 PM 84.2 °F 39.2 °F 20% 30.12 in - West 6.9 mph - N/A   Clear
7:30 PM 80.6 °F 46.4 °F 30% 30.12 in - Variable 2.3 mph - N/A   Clear
8:00 PM 74 °F 42 °F 21% 30.06 in 19 mi SW 4.6 mph - -  
8:00 PM 75.2 °F 44.6 °F 34% 30.12 in - WSW 4.6 mph - N/A   Clear
8:30 PM 73.4 °F 46.4 °F 38% 30.15 in - Variable 1.2 mph - N/A   Clear
9:00 PM 71.6 °F 46.4 °F 41% 30.15 in - Variable 1.2 mph - N/A   Clear
9:30 PM 73.4 °F 46.4 °F 38% 30.15 in - Calm Calm - N/A   Clear
10:00 PM 69.8 °F 50.0 °F 49% 30.15 in - Variable 1.2 mph - N/A   Clear
10:30 PM 66.2 °F 50.0 °F 56% 30.15 in - Variable 2.3 mph - N/A   Clear
11:00 PM 64.4 °F 51.8 °F 64% 30.15 in - Calm Calm - N/A   Clear